Location: Newark
(40.9833°N, 0.0333°W)
Time: 09:03:24
(UTC+00:00)

Transit 4A - Pass Details

Date: 31 October 2020
Orbit: 862 x 982 km, 66.8° (Epoch: 26 November)

Event Time Altitude Azimuth Distance (km) Brightness Sun altitude
Rises 15:42:20 0° 246° (WSW) 3,602 13.0 11.9°
Reaches altitude 10° 15:45:16 10° 258° (WSW) 2,679 12.1 11.4°
Maximum altitude 15:50:29 27° 314° (NW) 1,771 9.7 10.6°
Drops below altitude 10° 15:55:50 10° 11° (N) 2,735 10.0 9.7°
Sets 15:58:52 0° 24° (NNE) 3,692 10.5 9.2°
